User: anonymous   Login
Location: Unspecified
(0.0000°N, 0.0000°E)
Time: 21:45:06
(UTC+00:00)
Language:

COSMOS 2484 - Orbit

View from above orbital plane
View from above orbital plane
View from above satellite
View from above satellite

Ground track
Ground track

The orbit data is extracted from the following two-line orbital elements,

1 39059U 13001C   17117.76783167 +.00000010 +00000-0 +00000-0 0  9994
2 39059 082.5008 136.9391 0026447 113.6006 246.7858 12.42885658194163
Epoch (UTC): 27 April 2017 18:25:40
Eccentricity: 0.0026447
inclination: 82.5008°
perigee height: 1473 km
apogee height: 1515 km
right ascension of ascending node: 136.9391°
argument of perigee: 113.6006°
revolutions per day: 12.42885658
mean anomaly at epoch: 246.7858°
orbit number at epoch: 19416

The dashed part of the orbit path shows where the satellite is in the earth's shadow,  

DLR